Location: Tel Aviv
(32.0670°N, 34.7670°E)
Time: 01:36:03
(UTC+02:00)

Transit 4A - Pass Details

Date: 12 December 2023
Orbit: 869 x 974 km, 66.8° (Epoch: 23 February)

Event Time Altitude Azimuth Distance (km) Brightness Sun altitude
Exits shadow 04:26:11 31° 210° (SSW) 1,514 8.8 -25.9°
Drops below altitude 10° 04:29:35 10° 184° (S) 2,521 10.3 -25.2°
Sets 04:32:11 0° 176° (S) 3,447 11.1 -24.6°
